Theta_e
310 310 310 309 309 309 308 308 308 308 308 308 309 309 310 312 313 312 311 311 312 311 312 312 313 310 316 318 316 315 322 324 326 326 331 323 326 327 334 347 352 351 352 352 353
310 311 310 310 310 309 309 308 308 308 308 308 309 309 309 311 313 312 312 312 312 313 312 311 312 311 318 319 318 320 322 323 321 321 324 323 327 329 336 354 357 357 354 353 353
308 309 310 310 309 309 309 309 308 307 307 307 308 308 309 310 311 312 315 314 315 316 315 311 311 313 319 319 319 319 322 320 319 319 320 323 325 325 335 349 352 358 358 354 352
306 307 308 308 308 308 308 308 308 308 307 307 307 307 308 311 318 310 316 316 315 319 315 311 312 314 319 320 319 320 319 320 319 319 320 322 324 328 327 330 339 354 355 354 352
305 305 305 305 306 306 307 307 307 307 308 306 306 307 310 312 313 312 312 314 317 317 315 311 312 314 318 319 318 320 320 318 320 320 320 321 323 328 329 332 351 352 353 353 351
306 307 306 305 305 305 305 305 305 306 307 306 306 307 310 312 310 312 311 317 317 315 314 310 312 314 317 319 319 319 319 320 320 320 319 322 323 328 328 341 352 352 353 352 351
304 305 306 306 305 305 305 306 306 306 306 307 307 309 310 310 310 310 311 311 315 315 314 310 310 314 316 318 317 317 320 319 319 320 321 321 324 328 328 343 351 353 353 352 352
304 303 305 306 306 306 306 305 305 305 306 308 308 310 310 309 310 311 310 311 312 315 311 310 308 312 316 316 318 318 319 322 321 320 320 321 330 325 328 331 344 347 345 346 347
304 303 303 304 304 305 305 304 305 306 307 308 309 310 310 311 312 312 312 312 314 314 311 310 311 313 312 316 318 319 317 320 320 320 321 322 324 324 327 329 330 330 330 332 335
303 303 303 304 304 304 303 303 305 306 307 308 309 311 311 311 312 312 312 312 316 314 312 310 311 312 312 316 315 318 319 318 320 319 321 322 325 324 328 329 330 330 330 330 329
304 303 303 303 303 303 303 303 304 309 307 309 309 310 310 312 314 313 311 315 313 314 310 309 312 312 312 315 314 315 317 317 318 319 322 323 325 329 327 328 329 330 330 330 330
303 303 303 303 302 303 303 303 303 307 311 310 309 309 311 312 314 314 313 315 312 311 311 308 312 312 310 312 312 313 315 316 317 320 321 326 326 328 329 330 330 329 329 329 330
303 303 303 303 304 302 303 303 304 305 310 310 311 311 312 311 314 315 314 315 310 310 309 307 309 309 312 312 313 313 312 315 317 320 322 324 324 326 329 329 328 328 329 329 330
303 303 303 304 304 303 303 303 305 305 310 313 314 313 312 313 314 313 313 316 317 312 310 308 308 309 311 313 313 315 313 313 314 319 321 323 323 324 327 330 330 330 329 329 329
303 303 304 304 304 302 302 304 305 306 317 315 314 312 313 316 316 315 313 314 317 317 314 312 309 307 310 313 313 314 314 315 314 314 317 324 321 321 324 325 326 329 329 329 329
303 306 305 303 303 302 302 303 307 314 320 314 316 316 316 315 317 317 314 313 315 318 317 312 310 307 308 310 312 313 314 316 316 318 317 317 319 318 320 324 325 326 328 327 327
302 307 306 303 303 303 302 305 316 317 316 315 316 316 315 316 318 315 314 315 317 319 320 315 310 310 310 309 311 314 316 317 317 317 317 317 322 319 324 323 323 324 324 324 325
304 307 306 303 304 303 304 313 317 316 320 316 316 317 319 319 318 315 315 315 313 315 318 316 314 311 310 309 311 314 315 315 316 318 317 320 317 318 320 323 326 326 325 321 322
305 306 308 307 306 306 311 317 318 321 317 318 320 320 321 318 316 315 315 315 314 314 316 313 313 311 311 311 312 313 315 315 320 319 317 318 320 321 327 327 328 328 324 320 321
303 303 307 308 306 306 315 316 318 316 317 315 320 322 321 318 316 314 314 314 314 314 312 314 313 313 312 311 312 313 314 315 317 318 318 320 322 318 325 326 328 329 328 323 326
304 310 307 304 309 312 314 313 313 313 316 318 317 323 321 316 314 313 313 314 314 315 313 314 315 314 312 313 314 315 315 315 316 320 318 320 323 327 327 329 330 330 326 324 330
304 307 304 306 312 312 313 311 311 315 317 315 315 322 324 321 314 315 314 317 314 315 316 316 317 315 314 316 314 315 315 317 317 320 321 324 320 328 330 329 329 328 324 327 335
305 305 302 305 310 310 310 312 313 315 317 316 318 319 323 324 319 317 317 316 315 316 318 317 317 321 320 320 314 314 317 318 322 324 324 322 322 330 330 329 328 327 326 332 336
303 307 306 306 306 308 311 312 312 312 314 314 319 320 323 324 324 325 320 321 314 317 320 319 320 321 320 319 321 319 317 318 319 327 324 323 322 333 331 330 328 326 326 330 333
302 304 304 306 307 307 309 309 312 314 312 315 319 319 321 326 324 328 326 321 317 322 317 321 321 326 327 325 326 325 317 318 318 318 320 319 322 328 331 330 323 325 327 329 328
302 303 302 303 305 307 308 310 312 312 313 316 318 317 318 324 325 328 327 326 322 321 320 322 329 328 330 326 325 325 322 319 319 322 326 327 328 328 330 323 323 325 324 322 322
301 301 302 304 304 307 308 308 311 310 312 313 314 316 322 323 323 322 324 324 326 325 323 324 329 328 328 327 326 328 325 324 325 325 327 327 330 331 328 322 320 320 321 318 317
Wind_Speed
18 18 17 16 16 16 17 16 17 17 16 17 16 17 17 16 16 14 18 19 13 10 14 5 5 11 5 3 5 4 7 14 17 11 10 5 7 3 3 3 2 2 1 8 21
18 18 18 18 17 17 16 17 17 17 17 16 16 15 18 16 16 24 38 27 26 18 9 12 10 14 6 6 7 9 13 14 6 5 6 5 6 7 4 7 2 8 12 18 21
20 20 19 20 19 18 18 18 16 18 17 17 16 16 15 14 10 10 4 11 16 19 15 12 8 16 14 8 12 9 16 7 6 5 3 4 6 2 6 7 7 11 19 17 18
21 20 20 20 21 21 19 20 19 15 17 16 17 15 14 5 8 4 3 12 14 20 20 12 10 19 14 15 15 12 9 11 4 3 4 2 1 4 4 0 3 12 15 17 19
22 22 23 23 22 23 23 22 21 19 18 17 16 14 10 8 13 18 22 24 8 24 27 16 18 19 20 16 13 16 14 9 7 1 2 1 3 3 6 6 12 15 10 14 14
23 23 24 22 22 23 24 23 23 22 19 18 14 12 10 19 12 11 5 4 8 22 23 14 14 15 17 17 18 14 9 13 5 8 0 2 3 4 6 12 14 15 13 13 13
24 24 24 23 23 22 23 22 22 22 21 17 15 13 13 22 9 5 7 2 4 19 17 13 10 17 12 11 8 9 16 8 9 5 5 2 3 6 8 13 15 15 13 12 12
27 28 27 25 24 24 23 24 26 26 23 20 15 13 11 12 17 24 23 22 9 14 15 13 5 9 7 7 10 11 13 15 16 12 4 9 22 9 9 11 14 15 12 11 12
28 29 29 28 27 26 26 28 28 27 23 18 10 8 11 5 14 27 22 11 16 17 11 12 3 9 5 18 14 10 15 22 13 16 8 11 9 11 8 10 10 12 14 13 11
31 31 32 30 28 27 27 29 31 17 7 8 11 6 10 8 7 6 16 18 13 14 7 9 5 11 8 16 18 24 15 18 18 11 17 13 6 9 11 10 10 9 7 8 9
33 34 32 31 30 27 26 15 4 3 7 10 11 6 9 8 2 3 20 22 13 12 10 12 10 20 26 21 11 19 18 11 13 6 12 14 11 6 11 8 10 8 6 7 7
36 36 35 33 31 29 21 5 12 4 7 20 18 23 8 5 1 10 22 10 20 16 11 10 15 14 12 14 9 14 19 14 11 10 11 10 14 5 9 12 12 12 10 10 8
43 42 39 35 31 23 12 11 6 9 5 9 18 19 10 10 4 8 17 14 20 17 12 15 12 10 14 13 11 11 19 22 12 9 3 10 9 9 7 7 8 9 8 7 10
45 46 43 35 16 5 6 10 5 5 4 4 5 5 16 4 7 10 19 12 6 17 11 8 9 18 16 13 10 9 10 17 19 12 11 8 12 9 12 12 11 12 9 10 9
50 48 38 17 6 3 8 6 10 8 4 5 5 9 15 13 12 11 26 4 12 14 5 6 15 20 21 21 12 5 6 13 16 15 9 10 8 14 6 17 17 13 13 14 12
51 35 24 8 2 5 7 7 2 2 2 7 1 8 13 9 5 16 15 12 7 12 6 4 10 14 12 16 16 7 6 8 6 6 11 14 14 13 15 13 10 11 12 12 14
42 21 21 8 3 10 6 1 2 3 7 5 4 8 15 10 9 22 19 12 8 11 12 5 10 7 10 19 17 14 14 7 8 7 6 8 8 10 8 9 11 12 7 9 14
24 16 14 13 5 5 3 2 3 9 8 1 2 5 9 13 19 20 19 13 3 8 11 8 6 13 15 20 12 17 17 6 7 9 8 5 9 6 10 3 4 7 8 8 13
17 17 15 17 5 4 2 3 5 7 8 8 6 9 6 9 12 20 20 15 8 7 5 5 4 15 19 13 15 19 12 5 5 2 7 6 3 4 4 7 5 6 7 11 14
10 8 14 16 7 3 2 7 8 12 11 5 3 1 12 13 14 15 17 14 6 11 2 5 8 13 17 14 5 16 15 8 2 8 6 5 4 6 11 11 7 6 6 7 11
6 3 18 26 5 2 3 4 5 14 11 6 4 3 6 10 19 16 18 13 15 10 6 2 4 10 13 10 14 13 12 5 3 1 7 4 3 5 7 4 5 8 8 5 11
6 4 20 18 7 3 5 10 7 10 6 6 4 5 3 6 14 8 18 5 20 8 6 1 5 12 18 2 15 13 15 9 9 8 1 1 2 2 4 2 5 9 7 4 10
3 3 10 13 5 5 8 10 10 12 10 3 5 7 6 2 7 5 12 3 15 14 9 7 3 10 10 6 6 13 8 9 7 2 8 5 2 2 3 1 4 6 2 7 11
3 5 4 4 3 7 7 9 17 13 8 9 4 6 6 6 7 3 8 5 11 15 6 6 3 4 8 9 8 8 12 13 13 4 6 8 6 7 7 3 2 1 4 8 12
5 3 2 5 7 13 12 13 13 13 8 11 4 14 11 6 3 4 4 3 6 3 4 1 3 4 5 3 3 8 17 18 17 14 9 12 10 7 8 4 4 7 10 12 13
3 4 4 5 8 11 11 9 11 12 4 9 9 14 11 5 6 6 4 3 2 3 4 0 3 2 4 4 4 4 9 11 10 8 6 4 4 5 12 10 10 12 14 14 14
5 3 2 5 9 7 8 10 11 17 7 9 8 7 5 5 10 8 3 2 2 2 4 4 5 3 4 1 7 6 8 10 6 5 5 6 7 15 14 14 11 11 17 15 15
Wind_Direction
330 327 325 323 323 328 330 323 318 312 310 307 306 308 309 302 295 279 265 241 234 274 242 332 174 195 200 212 189 150 210 208 204 188 198 167 196 144 46 175 73 338 137 132 142
330 331 324 321 317 318 319 320 318 317 309 304 304 304 307 308 294 273 261 256 253 247 233 219 200 175 194 188 184 199 211 208 191 189 163 164 199 160 185 152 141 116 117 133 146
329 329 327 320 317 314 314 312 310 308 307 305 302 304 303 316 294 261 86 205 236 230 228 207 202 183 202 186 184 191 215 191 211 180 177 150 162 184 172 204 211 187 150 149 152
335 325 323 321 318 315 312 309 309 304 309 302 299 298 297 293 266 147 183 319 290 212 199 195 195 189 189 194 186 196 204 191 170 160 139 145 80 155 209 37 223 165 152 154 163
339 337 326 314 314 311 308 306 305 305 298 301 297 284 292 233 242 268 299 306 212 172 187 191 185 189 196 191 179 209 182 186 203 91 102 234 74 179 132 116 132 142 160 168 168
335 331 327 324 314 307 305 302 299 293 291 294 289 269 257 253 267 262 255 51 171 172 184 199 196 192 195 185 194 185 186 185 187 204 71 144 72 264 129 141 141 155 168 175 175
328 325 324 318 312 308 305 301 295 293 285 279 283 261 246 240 242 200 227 329 196 184 182 200 188 193 167 165 173 174 198 176 192 177 196 133 209 217 134 153 152 166 170 177 182
329 325 321 318 315 313 306 299 296 290 283 280 273 262 256 254 250 250 249 270 233 192 193 196 203 199 199 162 161 172 200 202 190 184 188 194 203 200 153 148 165 168 177 188 199
329 328 323 317 313 311 309 306 299 290 280 263 248 230 264 260 231 245 227 217 181 191 184 193 231 193 152 167 176 188 198 205 185 202 168 201 190 207 166 159 162 166 170 175 186
329 326 322 321 316 309 307 307 301 289 245 199 226 220 244 240 210 199 181 184 163 176 147 176 185 184 179 184 185 188 193 196 197 184 202 189 189 185 173 174 197 187 191 188 195
327 323 321 319 315 308 312 326 296 202 203 201 194 213 291 222 171 166 162 161 146 167 158 180 183 187 191 195 204 201 196 189 198 187 183 194 187 205 171 177 181 195 191 219 233
327 322 320 317 312 309 301 244 241 332 267 234 237 224 236 53 329 153 168 140 165 162 142 159 200 186 156 179 164 180 192 194 179 160 188 175 187 205 194 191 193 190 195 212 224
331 325 321 315 309 303 238 222 245 341 272 271 222 221 219 205 247 179 185 147 163 164 172 180 180 163 177 179 145 184 194 192 166 163 104 153 190 201 222 243 214 204 222 226 224
331 328 324 320 303 270 281 286 287 265 283 239 185 235 187 185 219 198 195 140 149 160 154 173 161 173 177 184 172 141 189 181 194 177 192 214 209 213 194 204 226 221 223 229 243
336 333 333 325 260 239 284 295 358 173 276 86 141 139 155 175 129 189 200 208 144 156 180 140 165 184 184 189 183 145 167 159 184 198 193 191 225 198 204 221 215 218 218 221 225
338 349 352 21 27 292 266 290 276 264 260 355 275 139 150 208 188 148 190 233 140 155 198 102 174 165 177 174 182 173 128 89 110 150 200 203 220 212 213 214 214 225 222 216 223
347 1 9 12 14 356 171 260 179 290 312 353 11 158 153 181 151 152 181 182 162 155 187 156 154 165 170 164 178 187 178 153 177 195 196 179 199 235 202 206 224 223 228 216 213
356 15 28 45 48 76 113 268 360 347 8 164 319 170 172 173 150 162 172 176 176 151 158 162 162 164 174 168 177 180 183 178 178 182 167 160 220 212 224 181 231 254 253 233 210
358 21 25 16 40 354 301 352 351 351 333 338 85 137 212 136 149 162 178 175 181 169 153 149 132 177 168 169 160 187 198 148 106 97 171 188 191 233 210 220 229 225 226 222 210
349 333 25 358 7 330 7 340 343 339 351 25 39 246 154 137 143 167 177 199 206 211 249 172 127 183 158 166 163 179 183 194 200 173 178 172 231 235 199 212 243 264 253 219 208
21 31 352 347 327 19 39 322 299 315 19 358 340 324 120 143 154 162 180 175 212 201 206 126 149 152 161 187 174 156 174 188 179 268 192 200 200 214 195 176 269 294 303 240 194
351 57 337 357 41 24 356 324 291 311 15 13 305 291 300 75 157 150 184 165 203 167 199 263 127 161 173 133 180 173 182 173 188 193 219 1 244 143 160 276 287 291 297 228 185
12 325 346 6 38 7 327 348 351 342 350 40 320 349 340 37 146 146 185 202 168 186 181 187 137 144 147 145 156 196 179 174 126 140 210 206 225 145 169 246 308 301 245 170 162
3 12 344 22 22 349 342 358 359 349 340 343 308 328 357 24 30 125 176 38 181 192 183 137 111 137 158 156 149 179 184 192 191 185 176 227 233 200 197 171 25 357 165 161 159
15 41 14 338 351 344 4 360 350 358 339 343 11 20 11 20 28 59 32 99 94 125 105 191 120 87 48 115 161 162 183 187 195 215 201 250 220 215 169 116 83 118 136 138 131
37 347 345 301 319 340 4 349 337 341 301 344 349 340 338 21 17 13 344 43 99 105 125 122 108 110 69 104 142 124 161 181 191 199 234 257 159 139 122 107 101 108 110 107 104
355 298 284 301 337 353 354 340 324 337 306 321 312 317 320 4 314 293 327 44 59 152 135 151 139 126 137 133 143 121 173 173 156 170 201 180 142 140 120 97 87 105 106 103 98